Temperature
14 14 14 13 13 13 13 13 13 12 12 12 12 12 12 12 12 12 12 12 12 12 11 11 11 11 11 11 11 11 11 11 11 11 11 11 11 11 11 11 11 11 11
14 14 13 13 13 13 13 12 12 12 12 12 12 12 12 11 11 11 11 11 11 11 11 11 11 11 11 11 11 11 11 11 11 11 11 11 11 11 11 11 11 11 11
13 13 13 13 13 12 12 12 12 12 11 11 11 11 11 11 11 11 11 11 11 11 11 11 11 11 11 11 11 11 11 10 10 10 10 10 10 10 10 10 11 11 11
13 13 12 12 12 12 12 11 11 11 11 11 11 11 11 11 11 11 11 11 11 11 10 10 10 10 10 10 10 10 10 10 10 10 10 10 10 10 10 10 10 10 10
12 12 12 12 12 11 11 11 11 11 10 10 10 10 10 10 10 10 10 10 10 10 10 10 10 10 10 10 10 10 10 10 10 10 10 10 10 10 10 10 10 10 10
12 12 11 11 11 11 11 10 10 10 10 10 10 10 9 9 9 9 9 9 10 10 10 9 9 9 9 9 9 9 9 9 9 9 9 9 9 9 9 9 9 9 9
11 11 11 11 11 10 10 10 10 10 9 9 9 9 9 9 9 9 9 9 9 9 9 9 9 9 9 9 9 9 9 9 9 9 9 9 9 9 9 9 9 9 9
11 11 10 10 10 10 10 9 9 9 9 9 9 9 8 8 8 8 8 8 8 8 9 9 9 9 9 9 9 9 9 8 8 8 8 8 8 8 8 8 8 8 8
10 10 10 10 10 9 9 9 8 8 8 8 8 8 8 8 8 8 8 8 8 8 8 8 8 8 8 8 8 8 8 8 8 8 8 8 8 8 8 8 8 8 8
10 10 9 9 9 9 9 8 8 8 8 7 7 7 7 7 7 7 7 7 7 8 8 8 8 8 8 8 8 8 8 8 7 7 8 8 8 8 8 7 8 7 7
9 9 9 9 9 8 8 8 8 7 7 7 7 7 7 7 7 7 7 7 7 7 7 7 7 7 7 7 7 7 7 7 7 7 7 7 7 7 7 7 7 7 7
9 9 9 8 8 8 8 8 7 7 7 7 7 7 6 6 6 6 6 6 6 6 6 7 7 7 7 7 7 7 7 6 6 6 6 7 7 7 7 7 7 7 7
9 8 8 8 8 8 7 7 7 7 6 6 6 6 6 6 6 6 6 6 6 6 6 6 6 6 6 6 6 6 6 6 6 6 6 6 6 6 6 6 6 6 6
8 8 8 8 7 7 7 7 6 6 6 6 6 6 5 5 5 5 5 5 5 5 5 6 6 6 6 6 6 6 6 6 6 5 5 5 5 5 5 5 6 6 6
8 8 7 7 7 7 7 6 6 6 6 6 5 5 5 5 5 5 5 5 5 5 5 5 5 5 5 5 5 5 5 5 5 5 5 5 5 5 5 5 5 5 5
8 7 7 7 7 6 6 6 6 5 5 5 5 5 5 5 5 5 5 5 5 5 5 5 5 5 5 5 5 5 5 5 5 4 4 4 4 4 4 4 4 4 5
7 7 7 7 6 6 6 6 5 5 5 5 5 5 5 5 5 5 4 4 4 4 4 4 4 4 4 4 4 4 4 4 4 4 4 4 4 4 4 4 4 4 4
7 6 6 6 6 6 6 5 5 5 5 5 5 5 4 4 4 4 4 4 4 4 4 4 4 4 4 4 4 4 3 3 3 4 3 3 3 3 3 3 3 3 3
6 6 6 6 5 5 5 5 5 4 4 4 4 4 4 4 4 4 4 4 4 3 3 3 3 3 3 3 3 3 3 3 3 3 3 3 3 3 3 3 3 3 3
6 6 5 5 5 5 5 4 4 4 4 4 4 4 4 4 3 3 3 3 3 3 3 3 3 3 3 3 3 3 2 2 3 2 2 2 2 2 2 2 2 2 2
5 5 5 5 5 5 4 4 4 4 3 3 3 3 3 3 3 3 3 3 3 3 3 3 3 3 3 2 2 2 2 2 2 2 2 2 2 2 2 2 2 1 1
5 5 5 4 4 4 4 4 4 3 3 3 3 3 3 3 3 3 3 3 2 2 2 2 2 2 2 2 2 2 2 2 2 2 1 1 1 1 1 1 1 1 1
5 5 5 4 4 4 4 4 3 3 3 3 3 2 2 2 2 2 2 2 2 2 2 2 2 2 2 2 2 1 1 1 1 1 1 1 1 1 1 1 1 1 1
5 4 4 4 4 4 4 3 3 3 3 2 2 2 2 2 2 2 2 2 2 2 2 2 2 2 1 1 1 1 1 1 1 1 1 1 1 0 0 0 0 0 0
4 4 4 4 4 3 3 3 3 2 2 2 2 2 2 1 1 1 1 1 1 1 1 1 1 1 1 1 1 1 1 1 1 1 0 0 0 0 -0 -0 -0 -0 -0
4 4 3 3 3 3 3 2 2 2 2 1 1 1 1 1 1 1 1 1 0 0 1 1 1 1 1 1 1 1 0 0 0 0 0 0 -0 -0 -0 -0 -1 -1 -1
Wind_Speed
2 2 2 1 1 1 1 1 1 0 0 0 0 0 0 0 0 1 1 1 1 1 0 1 1 1 0 1 1 1 1 2 3 2 2 2 1 2 3 3 2 2 2
2 2 2 1 1 1 1 1 1 1 0 1 0 0 0 0 0 1 2 1 1 1 1 1 1 1 1 0 1 1 2 2 3 2 1 1 1 2 2 2 2 2 2
3 3 2 2 2 1 1 0 1 1 1 1 1 1 0 0 1 1 2 2 2 2 1 1 1 1 1 1 1 1 1 2 2 2 2 1 1 1 1 2 2 2 3
3 2 2 1 1 1 1 1 1 1 1 1 1 0 1 1 0 0 1 1 1 1 2 2 2 2 2 2 1 1 1 1 2 2 1 1 1 1 0 1 2 2 2
3 2 1 1 1 1 2 1 1 1 1 0 1 1 1 0 0 0 0 1 1 1 1 2 3 3 3 3 2 2 2 2 2 2 1 1 1 0 1 1 1 2 2
2 2 1 1 1 2 1 1 1 1 1 1 1 0 1 1 1 0 0 0 0 1 2 2 3 2 3 3 3 3 4 3 3 3 2 2 3 3 2 1 1 1 2
2 1 1 1 1 1 1 1 1 1 1 1 0 1 1 2 2 1 0 0 0 1 2 2 2 2 2 1 2 2 2 3 4 4 4 4 4 4 3 2 2 2 3
2 2 2 2 1 1 1 1 1 1 1 1 1 1 1 3 3 1 0 0 0 1 2 2 2 2 2 2 2 1 1 2 3 3 4 5 5 4 5 5 4 2 1
2 2 2 2 2 1 1 2 1 1 1 1 1 1 1 3 3 2 1 0 1 2 2 1 1 2 3 1 2 2 1 2 3 3 3 3 3 4 4 2 2 1 2
3 3 2 2 2 2 2 2 1 1 1 1 1 1 2 2 3 2 1 1 1 2 2 2 3 3 3 1 3 3 3 3 2 1 2 3 2 1 4 4 4 3 2
2 2 2 2 2 2 1 1 1 1 1 0 1 1 2 2 3 3 1 1 2 2 2 2 3 3 3 2 2 3 4 3 2 2 1 2 2 1 1 3 4 4 3
2 2 2 1 1 1 1 0 0 1 1 1 1 1 2 2 3 3 2 2 2 2 3 3 2 2 2 2 2 2 2 2 1 1 1 2 2 2 3 3 4 4 4
2 2 2 1 1 1 2 1 1 0 1 1 1 2 2 2 3 4 3 3 2 2 2 2 1 1 2 2 2 1 1 1 1 1 2 3 3 3 2 2 2 2 2
2 2 2 2 1 0 1 1 1 2 1 2 2 2 2 2 2 2 2 2 2 2 2 1 1 1 1 1 1 1 1 1 1 2 2 2 2 1 1 1 1 1 1
2 2 1 1 1 1 0 1 2 2 2 2 3 3 2 3 4 4 2 2 2 2 1 1 1 1 1 1 1 1 1 0 1 1 1 1 1 1 1 1 1 1 2
2 1 1 1 1 1 0 1 3 2 3 2 2 2 3 4 5 4 4 3 2 1 1 0 1 1 1 1 1 1 1 1 1 1 1 1 1 1 1 1 1 1 2
2 2 1 1 1 1 1 1 1 3 3 3 3 3 3 3 3 2 2 2 1 1 1 1 1 2 2 2 1 1 2 2 1 1 1 1 1 1 1 1 1 1 2
2 2 1 1 1 1 1 1 1 1 1 3 3 4 3 3 3 2 1 1 1 1 1 2 2 2 2 2 2 2 2 1 1 1 1 1 1 1 1 1 1 2 2
2 2 1 1 1 1 1 0 0 1 1 2 2 3 4 3 3 3 1 1 1 2 2 2 3 3 2 2 2 2 1 1 1 1 1 1 1 1 1 2 2 2 2
2 2 2 2 1 1 1 1 1 1 1 1 2 2 2 2 2 2 1 1 2 2 3 3 3 3 2 2 2 1 1 1 1 1 1 1 1 1 2 2 2 2 2
2 2 2 1 2 2 2 2 2 1 2 2 2 2 2 1 2 2 2 2 2 3 3 3 3 2 2 2 2 2 2 2 2 2 2 2 2 2 2 2 2 2 2
2 2 2 2 2 2 2 2 2 2 2 2 2 2 2 1 2 2 2 3 3 3 3 2 2 2 3 3 3 2 3 3 3 3 3 3 3 2 2 2 2 2 2
2 2 2 2 2 2 1 2 2 2 2 2 2 2 2 2 2 2 3 3 3 3 3 2 2 3 3 3 4 4 4 4 4 4 3 3 3 3 3 3 3 3 3
2 3 3 2 2 2 2 2 2 2 2 2 2 2 2 2 2 3 3 3 2 3 2 2 3 3 4 4 4 4 5 5 5 5 5 4 4 3 3 3 4 4 4
2 2 2 2 2 2 2 2 2 2 2 2 2 3 2 2 2 3 3 3 3 3 3 3 3 4 5 5 5 5 5 6 5 5 4 4 4 5 4 4 4 4 4
3 3 3 2 3 3 3 3 3 3 3 3 3 3 3 3 3 3 3 3 3 3 4 4 5 5 6 5 6 6 6 6 6 6 5 4 4 4 4 4 5 4 4
Wind_Direction
176 173 163 175 160 141 149 184 183 166 162 156 170 141 170 333 194 162 193 186 179 227 205 181 233 222 183 236 194 170 171 160 197 252 258 285 312 324 335 345 326 314 304
161 140 140 145 126 121 140 173 150 154 176 178 147 121 150 171 230 191 200 208 198 221 239 203 251 224 212 222 188 194 196 185 181 225 275 278 280 292 316 334 336 319 301
123 119 115 124 130 142 158 112 104 109 81 71 86 99 219 220 213 232 208 212 219 225 224 215 231 168 228 257 201 200 209 190 174 189 240 256 293 321 341 330 329 336 325
121 126 135 166 173 167 136 106 95 104 108 95 110 195 251 246 229 236 199 197 222 248 243 233 227 197 204 209 199 202 186 169 166 173 217 265 283 309 7 325 321 324 309
124 128 169 173 140 127 109 104 101 86 70 127 96 28 341 322 270 85 173 222 207 256 277 263 245 219 215 196 189 180 168 170 174 178 204 244 270 301 250 245 260 299 296
135 155 163 132 124 126 135 132 104 84 63 60 56 29 342 315 319 308 124 202 228 230 276 288 278 253 251 230 219 190 170 171 186 192 200 218 235 231 225 227 233 300 286
149 162 169 163 153 153 152 121 124 147 109 55 337 15 322 292 305 297 115 122 222 259 263 277 287 283 262 246 225 203 203 188 179 184 197 218 221 220 203 209 217 221 240
165 173 173 172 167 153 142 140 171 206 195 221 272 290 303 312 326 320 172 145 236 263 255 245 261 279 261 219 179 178 219 235 215 201 214 225 222 208 202 209 215 229 271
185 193 191 177 167 158 164 190 202 199 212 241 263 269 279 298 317 327 19 224 244 263 268 257 253 261 283 226 165 188 243 277 271 242 240 252 243 215 186 159 160 173 246
211 206 192 181 179 186 201 200 200 194 216 221 286 274 259 276 301 304 327 221 256 266 279 276 267 270 278 233 187 193 227 254 265 288 303 308 300 248 196 189 191 193 214
203 172 165 177 188 181 174 170 167 166 155 220 279 287 276 281 296 300 290 227 239 252 262 269 270 277 282 258 221 216 234 232 216 219 265 302 308 279 236 218 206 197 200
151 150 166 177 180 150 136 149 163 150 155 218 257 293 292 289 297 295 286 273 273 227 246 257 266 282 291 290 263 264 259 238 189 187 242 275 278 276 263 243 230 222 218
147 160 173 167 174 171 168 181 211 203 208 253 252 266 287 290 289 292 287 283 291 269 252 259 276 303 306 317 317 320 305 171 169 210 248 257 260 263 266 263 252 240 246
159 176 176 160 168 203 208 205 210 223 237 250 254 263 281 289 287 286 279 282 288 292 308 320 0 28 49 7 352 350 22 195 195 229 259 268 277 276 272 266 249 228 225
162 177 173 168 180 193 245 263 248 244 240 242 244 241 251 269 273 280 280 263 250 250 312 9 26 38 35 356 345 341 348 338 267 266 260 284 300 305 301 299 253 209 207
154 171 174 168 181 184 177 356 355 341 334 327 305 272 266 274 284 272 267 272 269 249 87 199 224 217 228 240 260 302 309 290 276 269 260 255 268 278 301 315 288 233 237
169 185 179 174 182 195 207 210 316 346 355 351 338 321 311 305 307 299 284 283 263 155 141 234 242 236 238 243 240 247 264 278 275 251 271 277 270 278 289 291 286 280 277
162 176 177 188 194 197 207 230 230 242 322 324 325 323 329 331 324 314 309 27 341 221 223 236 243 248 246 242 241 246 263 294 313 305 298 300 304 303 299 289 276 271 274
171 189 185 178 190 199 195 202 277 269 273 306 328 329 332 337 336 334 354 174 222 237 239 244 244 238 241 244 245 240 242 255 267 263 284 300 306 315 306 310 303 297 287
197 201 174 167 174 181 185 186 224 265 284 298 299 300 324 352 334 316 299 253 243 246 240 241 245 242 238 239 244 242 241 255 265 263 263 264 267 267 275 283 291 307 302
196 204 187 174 198 203 200 207 218 234 259 270 278 293 324 272 259 268 270 264 253 248 242 238 237 238 236 237 240 239 240 252 254 256 256 251 248 260 267 270 275 276 291
188 193 198 205 215 215 212 210 220 232 249 266 296 306 305 309 268 272 267 264 263 258 246 236 240 239 232 227 229 233 239 245 250 252 256 256 250 246 247 257 268 275 281
189 191 201 216 221 231 221 216 220 229 244 257 273 286 285 281 283 277 275 275 272 270 266 248 248 255 258 252 245 232 232 238 243 243 243 247 248 247 244 247 255 267 270
189 195 204 214 216 213 215 219 222 230 241 253 262 268 266 267 276 283 287 290 289 282 272 259 254 257 260 263 261 258 257 260 258 244 235 236 242 246 246 247 251 254 254
194 201 207 214 216 219 222 224 226 232 245 254 260 264 269 269 273 282 287 288 288 287 284 274 267 265 265 264 266 268 268 270 270 261 245 237 239 239 240 246 250 250 247
205 208 214 218 219 221 222 225 231 237 243 254 257 257 259 258 263 271 280 281 281 281 282 278 278 278 277 272 271 272 271 271 269 265 252 240 236 238 237 241 246 243 245
Height
1515 1516 1516 1517 1518 1518 1518 1518 1519 1519 1519 1518 1518 1518 1517 1517 1517 1517 1517 1517 1517 1516 1516 1515 1515 1515 1515 1515 1515 1515 1516 1516 1516 1516 1517 1517 1517 1517 1517 1517 1517 1517 1518
1513 1514 1514 1515 1515 1516 1516 1516 1516 1516 1516 1516 1516 1515 1515 1515 1515 1514 1514 1514 1514 1513 1513 1513 1512 1512 1512 1512 1512 1512 1513 1513 1513 1513 1514 1514 1514 1514 1514 1514 1514 1514 1515
1511 1512 1512 1512 1513 1513 1513 1513 1514 1514 1514 1514 1513 1513 1513 1513 1512 1512 1511 1511 1511 1510 1510 1510 1509 1509 1509 1509 1509 1509 1510 1510 1510 1511 1511 1511 1511 1511 1511 1512 1511 1511 1512
1509 1509 1510 1510 1510 1510 1510 1511 1511 1511 1511 1511 1511 1510 1510 1510 1509 1509 1509 1508 1508 1507 1507 1507 1507 1506 1506 1506 1506 1506 1506 1507 1507 1508 1508 1508 1509 1508 1508 1508 1508 1509 1509
1506 1507 1507 1507 1508 1508 1508 1508 1508 1508 1508 1508 1508 1507 1507 1507 1506 1506 1505 1505 1505 1504 1504 1504 1504 1504 1503 1503 1503 1503 1504 1504 1504 1504 1505 1505 1505 1505 1505 1505 1505 1505 1505
1504 1504 1505 1505 1505 1505 1505 1505 1505 1505 1505 1505 1504 1504 1504 1503 1503 1503 1502 1502 1501 1501 1500 1500 1501 1500 1500 1500 1500 1501 1501 1501 1500 1501 1501 1502 1502 1503 1503 1503 1503 1502 1502
1501 1502 1502 1502 1502 1502 1502 1502 1502 1502 1502 1501 1501 1501 1500 1500 1500 1500 1499 1499 1498 1498 1497 1497 1497 1497 1497 1497 1497 1497 1497 1498 1498 1498 1498 1498 1499 1500 1500 1500 1500 1500 1500
1498 1499 1499 1499 1499 1499 1499 1499 1499 1499 1499 1498 1498 1498 1497 1497 1497 1497 1496 1495 1495 1495 1494 1494 1494 1494 1494 1494 1494 1494 1494 1494 1494 1495 1495 1495 1496 1497 1497 1497 1497 1497 1497
1495 1496 1496 1496 1496 1496 1496 1496 1496 1496 1496 1495 1495 1494 1494 1494 1494 1493 1493 1492 1492 1491 1491 1491 1491 1491 1491 1491 1491 1490 1490 1491 1491 1491 1492 1492 1492 1493 1493 1493 1493 1493 1492
1492 1493 1493 1493 1493 1493 1493 1493 1493 1493 1493 1492 1492 1491 1491 1491 1491 1490 1490 1489 1488 1488 1488 1488 1488 1487 1488 1487 1487 1487 1487 1487 1487 1487 1488 1488 1488 1488 1489 1489 1489 1489 1489
1490 1490 1491 1491 1491 1491 1491 1491 1490 1490 1490 1489 1489 1488 1488 1488 1487 1487 1487 1486 1485 1484 1484 1484 1484 1484 1484 1484 1484 1484 1484 1484 1484 1484 1484 1484 1484 1484 1484 1484 1484 1485 1485
1487 1488 1488 1488 1489 1488 1488 1488 1488 1487 1487 1486 1486 1485 1485 1484 1484 1484 1483 1483 1482 1482 1481 1481 1481 1481 1481 1481 1481 1480 1481 1480 1480 1480 1480 1480 1480 1479 1479 1480 1480 1480 1481
1485 1485 1486 1486 1486 1486 1485 1485 1485 1484 1484 1483 1482 1482 1481 1481 1481 1480 1480 1480 1479 1479 1478 1478 1478 1478 1478 1477 1477 1477 1477 1476 1476 1476 1476 1476 1476 1476 1475 1475 1476 1476 1476
1482 1482 1483 1483 1483 1483 1482 1482 1482 1481 1481 1480 1480 1479 1478 1478 1477 1477 1477 1476 1476 1476 1475 1475 1475 1475 1474 1474 1474 1474 1473 1473 1473 1473 1473 1473 1472 1472 1471 1471 1471 1471 1472
1480 1480 1480 1480 1480 1480 1479 1479 1479 1479 1479 1478 1477 1477 1476 1475 1475 1475 1474 1473 1473 1473 1472 1472 1471 1471 1471 1471 1471 1471 1470 1470 1470 1470 1469 1469 1468 1468 1467 1467 1467 1467 1467
1477 1477 1477 1477 1477 1477 1476 1476 1476 1476 1476 1475 1475 1474 1473 1473 1472 1471 1471 1471 1470 1470 1469 1468 1468 1468 1468 1468 1468 1468 1467 1467 1467 1467 1466 1466 1465 1465 1464 1464 1464 1464 1463
1475 1475 1475 1475 1474 1474 1474 1473 1472 1473 1472 1472 1471 1471 1470 1469 1469 1468 1468 1467 1467 1467 1466 1466 1466 1465 1465 1465 1465 1465 1464 1464 1464 1464 1463 1463 1463 1462 1462 1461 1461 1460 1460
1473 1473 1472 1472 1472 1471 1471 1471 1470 1469 1469 1468 1468 1468 1467 1467 1466 1465 1465 1465 1464 1463 1463 1463 1463 1462 1462 1462 1462 1462 1462 1462 1461 1461 1461 1460 1460 1460 1459 1458 1458 1457 1457
1471 1470 1470 1470 1469 1469 1469 1468 1468 1467 1467 1466 1465 1465 1465 1464 1463 1463 1462 1461 1460 1460 1460 1460 1460 1460 1459 1459 1459 1459 1459 1459 1459 1459 1458 1457 1457 1457 1456 1456 1455 1455 1454
1468 1468 1468 1468 1467 1467 1466 1466 1466 1465 1464 1463 1463 1462 1462 1461 1460 1459 1459 1459 1458 1458 1457 1457 1457 1457 1457 1457 1457 1456 1456 1456 1456 1456 1455 1455 1454 1454 1454 1453 1452 1452 1451
1466 1466 1466 1465 1465 1464 1464 1463 1463 1463 1462 1461 1461 1460 1459 1458 1457 1457 1456 1456 1455 1455 1454 1454 1454 1454 1453 1453 1453 1453 1453 1453 1453 1452 1452 1451 1451 1451 1450 1450 1450 1449 1448
1464 1463 1463 1462 1462 1462 1461 1461 1460 1460 1459 1459 1458 1457 1457 1456 1455 1454 1454 1453 1453 1452 1452 1452 1451 1451 1451 1450 1450 1450 1449 1449 1449 1449 1448 1448 1448 1447 1447 1446 1446 1445 1445
1461 1460 1460 1460 1459 1459 1458 1458 1458 1457 1457 1456 1455 1454 1454 1453 1452 1451 1451 1450 1450 1449 1449 1449 1448 1448 1447 1447 1447 1446 1446 1446 1446 1445 1445 1444 1444 1443 1443 1442 1442 1441 1441
1457 1457 1457 1456 1456 1455 1455 1455 1455 1454 1454 1453 1452 1452 1451 1450 1449 1448 1448 1447 1447 1446 1445 1445 1445 1444 1444 1444 1443 1443 1442 1442 1442 1441 1441 1440 1439 1439 1438 1438 1437 1437 1437
1454 1454 1453 1453 1452 1452 1452 1452 1451 1451 1451 1450 1449 1449 1448 1447 1446 1445 1445 1444 1443 1443 1442 1442 1441 1441 1440 1440 1439 1439 1438 1438 1437 1437 1436 1436 1435 1435 1434 1434 1433 1433 1433
1451 1450 1450 1449 1449 1449 1448 1448 1448 1448 1447 1447 1446 1446 1445 1444 1443 1442 1442 1441 1440 1439 1439 1438 1437 1437 1436 1436 1435 1434 1434 1433 1433 1432 1432 1431 1431 1430 1430 1429 1429 1429 1429